Powrót do katalogu

ELECTRON KICK STAGE R/B

AktywnyVLEO
NORAD 65117·ROCKET BODY·🇺🇸 United States

Wystrzelony Aug 5, 2025 z Rocket Lab Launch Complex 1

Loading…

Następne Przeloty (najbliższe 24 godziny)

TLE

ŚwieżeSource: Space-Track

Epoka: Sep 14, 2026, 07:50 UTC

1 65117U 25169B   26257.32706226  .00003525  00000-0  27853-3 0  9996
2 65117  42.0098 243.1133 0007438  70.4113 289.7516 15.01983479 60832

Śledź ELECTRON KICK STAGE R/B w czasie rzeczywistym z AllMySat

Download on the App Store